Home   Weather   Heilbronn   Past weeks

Flag for Germany Past Weather in Heilbronn, Baden-Württemberg, Germany — Yesterday and Last 2 Weeks

48 °F

Light rain. Passing clouds.

Feels Like: 48 °F
Forecast: 47 / 58 °F
Wind: No wind

Location: Stuttgart-Echterdingen

Current Time: Oct 24, 2016 at 3:50:18 AM

Latest Report: Oct 24, 2016 at 3:20 AM

Visibility: N/A

Pressure: 29.89 "Hg

Humidity: 100%

Dew Point: 48 °F

Location of HeilbronnLocation

Past Weather in Heilbronn — Graph


Heilbronn Temperature Yesterday

Maximum temperature yesterday: 50 °F (at 2:20 PM)
Minimum temperature yesterday: 32 °F (at 6:20 AM)
Average temperature yesterday: 42 °F

High & Low Weather Summary for the Past Weeks

High68 °F (Oct 16, 3:50 PM)100% (Oct 9, 2:20 AM)30.24 "Hg (Oct 9, 2:20 AM)
Low32 °F (Oct 23, 6:20 AM)47% (Oct 12, 3:50 PM)29.65 "Hg (Oct 14, 5:50 PM)
Average47 °F84%30.03 "Hg
* Reported Oct 9 2:20 AM — Oct 24 2:50 AM, Heilbronn, Weather by CustomWeather, © 2016

Note: Actual official high and low records may vary slightly from our data, if they occured in-between our weather recording intervals... More about our weather records


Heilbronn Weather History for the Previous 24 Hours

Scroll right to see more
Time TempWeatherWind HumidityBarometerVisibility
2:50 AM
Mon, Oct 24
48 °FPartly cloudy.No wind94%29.89 "HgN/A
2:20 AM48 °FPartly cloudy.No wind94%29.89 "HgN/A
1:50 AM48 °FPassing clouds.No wind94%29.89 "HgN/A
1:20 AM48 °FPassing clouds.1 mph94%29.89 "HgN/A
12:50 AM48 °FLight rain. Overcast.2 mph94%29.89 "HgN/A
12:20 AM48 °FLight rain. Overcast.No wind94%29.89 "HgN/A
11:50 PM
Sun, Oct 23
46 °FOvercast.2 mph100%29.89 "HgN/A
11:20 PM46 °FPassing clouds.No wind100%29.86 "Hg5 mi
10:50 PM46 °FLight rain. Passing clouds.No wind100%29.89 "HgN/A
10:20 PM46 °FLight rain. Passing clouds.2 mph93%29.86 "HgN/A
9:50 PM48 °FLight rain. Passing clouds.2 mph87%29.86 "HgN/A
9:20 PM48 °FLight rain. Passing clouds.3 mph87%29.86 "HgN/A
8:50 PM48 °FLight rain. Partly cloudy.1 mph87%29.86 "HgN/A
8:20 PM48 °FPartly cloudy.2 mph87%29.86 "HgN/A
7:50 PM48 °FPartly cloudy.No wind82%29.86 "HgN/A
7:20 PM48 °FPartly cloudy.2 mph82%29.86 "HgN/A
6:50 PM48 °FPartly cloudy.2 mph82%29.86 "HgN/A
6:20 PM48 °FPartly cloudy.1 mph76%29.86 "HgN/A
5:50 PM48 °FPartly sunny.2 mph82%29.86 "HgN/A
5:20 PM50 °FPartly sunny.No wind76%29.86 "HgN/A
4:50 PM48 °FPartly sunny.1 mph82%29.86 "HgN/A
4:20 PM48 °FPartly sunny.2 mph82%29.83 "HgN/A
3:50 PM48 °FPassing clouds.5 mph82%29.86 "HgN/A
3:20 PM48 °FPassing clouds.3 mph82%29.86 "HgN/A
2:50 PM48 °FPassing clouds.5 mph82%29.86 "HgN/A
2:20 PM50 °FPassing clouds.5 mph76%29.86 "HgN/A
1:50 PM48 °FPassing clouds.3 mph76%29.86 "HgN/A
1:20 PM48 °FSunny.2 mph76%29.86 "Hg10 mi
12:50 PM48 °FPassing clouds.3 mph76%29.86 "HgN/A
12:20 PM46 °FSunny.2 mph82%29.86 "Hg10 mi
11:50 AM45 °FScattered clouds.2 mph81%29.89 "HgN/A
11:20 AM43 °FFog.1 mph87%29.89 "HgN/A
10:50 AM39 °FFog.No wind100%29.89 "HgN/A
10:20 AM39 °FFog.No wind100%29.89 "HgN/A
9:50 AM37 °FFog.No wind100%29.89 "HgN/A
9:20 AM37 °FFog.No wind100%29.89 "HgN/A
8:50 AM36 °FFog.No wind100%29.89 "HgN/A
8:20 AM34 °FFog.No wind100%29.89 "Hg6 mi
7:50 AM34 °FSleet. Fog.No wind93%29.89 "Hg3 mi
7:20 AM32 °FSleet. Fog.No wind100%29.89 "Hg3 mi
6:50 AM32 °FSleet. Overcast.No wind100%29.89 "Hg3 mi
6:20 AM32 °FPassing clouds.No wind100%29.89 "Hg0 mi
5:50 AM34 °FSleet. Overcast.No wind100%29.89 "Hg1 mi
5:20 AM34 °FSleet. Overcast.No wind100%29.89 "Hg1 mi
4:50 AM34 °FPartly cloudy.No wind100%29.92 "Hg1 mi
4:20 AM34 °FPassing clouds.No wind100%29.92 "Hg1 mi
3:50 AM36 °FFog.No wind93%29.92 "Hg0 mi
3:20 AM36 °FPassing clouds.2 mph100%29.92 "Hg0 mi
Weather by CustomWeather, © 2016

See weather overviewHow to use our weather pages